owner,sensor,date,latitude,longitude,air_pressure(mBar),qcFlag 
TABS,ioos:station:wmo:42043:1,2010-10-01T00:00:00Z,28.9818,-94.9186,1011.88,11111222 
TABS,ioos:station:wmo:42043:1,2010-10-01T00:30:00Z,28.9818,-94.9186,1012.01,11111222 
TABS,ioos:station:wmo:42043:1,2010-10-01T01:00:00Z,28.9818,-94.9186,1012.37,11111222 
TABS,ioos:station:wmo:42043:1,2010-10-01T01:30:00Z,28.9818,-94.9186,1012.66,11111222 
TABS,ioos:station:wmo:42043:1,2010-10-01T02:00:00Z,28.9818,-94.9186,1012.89,11111222 
TABS,ioos:station:wmo:42043:1,2010-10-01T02:30:00Z,28.9818,-94.9186,1013.37,11111222 
TABS,ioos:station:wmo:42043:1,2010-10-01T03:00:00Z,28.9818,-94.9186,1013.56,11111222 
TABS,ioos:station:wmo:42043:1,2010-10-01T03:30:00Z,28.9818,-94.9186,1013.69,11111222 
TABS,ioos:station:wmo:42043:1,2010-10-01T04:00:00Z,28.9818,-94.9186,1013.85,11111222 
TABS,ioos:station:wmo:42043:1,2010-10-01T04:30:00Z,28.9818,-94.9186,1013.94,11111222 
TABS,ioos:station:wmo:42043:1,2010-10-01T05:00:00Z,28.9818,-94.9186,1013.83,11111222 
TABS,ioos:station:wmo:42043:1,2010-10-01T05:30:00Z,28.9818,-94.9186,1013.69,11111222 
TABS,ioos:station:wmo:42043:1,2010-10-01T06:00:00Z,28.9818,-94.9186,1013.52,11111222 
TABS,ioos:station:wmo:42043:1,2010-10-01T06:30:00Z,28.9818,-94.9186,1013.32,11111222 
TABS,ioos:station:wmo:42043:1,2010-10-01T07:00:00Z,28.9818,-94.9186,1013.3,11111222 
TABS,ioos:station:wmo:42043:1,2010-10-01T07:30:00Z,28.9818,-94.9186,1013.18,11111222 
TABS,ioos:station:wmo:42043:1,2010-10-01T08:00:00Z,28.9818,-94.9186,1013.15,11111222 
TABS,ioos:station:wmo:42043:1,2010-10-01T08:30:00Z,28.9818,-94.9186,1012.89,11111222 
TABS,ioos:station:wmo:42043:1,2010-10-01T09:00:00Z,28.9818,-94.9186,1012.83,11111222 
TABS,ioos:station:wmo:42043:1,2010-10-01T09:30:00Z,28.9818,-94.9186,1013.06,11111222 
TABS,ioos:station:wmo:42043:1,2010-10-01T10:00:00Z,28.9818,-94.9186,1013.25,11111222 
TABS,ioos:station:wmo:42043:1,2010-10-01T10:30:00Z,28.9818,-94.9186,1013.56,11111222 
TABS,ioos:station:wmo:42043:1,2010-10-01T11:00:00Z,28.9818,-94.9186,1013.82,11111222 
TABS,ioos:station:wmo:42043:1,2010-10-01T11:30:00Z,28.9818,-94.9186,1014.0,11111222 
TABS,ioos:station:wmo:42043:1,2010-10-01T12:00:00Z,28.9818,-94.9186,1014.21,11111222 
TABS,ioos:station:wmo:42043:1,2010-10-01T12:30:00Z,28.9818,-94.9186,1014.6,11111222 
TABS,ioos:station:wmo:42043:1,2010-10-01T13:00:00Z,28.9818,-94.9186,1014.63,11111222 
TABS,ioos:station:wmo:42043:1,2010-10-01T13:30:00Z,28.9818,-94.9186,1014.99,11111222 
TABS,ioos:station:wmo:42043:1,2010-10-01T14:00:00Z,28.9818,-94.9186,1015.4,11111222 
TABS,ioos:station:wmo:42043:1,2010-10-01T14:30:00Z,28.9818,-94.9186,1015.59,11111222 
TABS,ioos:station:wmo:42043:1,2010-10-01T15:00:00Z,28.9818,-94.9186,1015.79,11111222 
TABS,ioos:station:wmo:42043:1,2010-10-01T15:30:00Z,28.9818,-94.9186,1015.96,11111222 
TABS,ioos:station:wmo:42043:1,2010-10-01T16:00:00Z,28.9818,-94.9186,1015.92,11111222 
TABS,ioos:station:wmo:42043:1,2010-10-01T16:30:00Z,28.9818,-94.9186,1015.84,11111222 
TABS,ioos:station:wmo:42043:1,2010-10-01T17:00:00Z,28.9818,-94.9186,1015.79,11111222 
TABS,ioos:station:wmo:42043:1,2010-10-01T17:30:00Z,28.9818,-94.9186,1015.69,11111222 
TABS,ioos:station:wmo:42043:1,2010-10-01T18:00:00Z,28.9818,-94.9186,1015.43,11111222 
TABS,ioos:station:wmo:42043:1,2010-10-01T18:30:00Z,28.9818,-94.9186,1015.18,11111222 
TABS,ioos:station:wmo:42043:1,2010-10-01T19:00:00Z,28.9818,-94.9186,1014.79,11111222 
TABS,ioos:station:wmo:42043:1,2010-10-01T19:30:00Z,28.9818,-94.9186,1014.41,11111222 
TABS,ioos:station:wmo:42043:1,2010-10-01T20:00:00Z,28.9818,-94.9186,1014.18,11111222 
TABS,ioos:station:wmo:42043:1,2010-10-01T20:30:00Z,28.9818,-94.9186,1014.04,11111222 
TABS,ioos:station:wmo:42043:1,2010-10-01T21:00:00Z,28.9818,-94.9186,1013.91,11111222 
TABS,ioos:station:wmo:42043:1,2010-10-01T21:30:00Z,28.9818,-94.9186,1013.68,11111222 
TABS,ioos:station:wmo:42043:1,2010-10-01T22:00:00Z,28.9818,-94.9186,1013.46,11111222 
TABS,ioos:station:wmo:42043:1,2010-10-01T22:30:00Z,28.9818,-94.9186,1013.4,11111222 
TABS,ioos:station:wmo:42043:1,2010-10-01T23:00:00Z,28.9818,-94.9186,1013.37,11111222 
TABS,ioos:station:wmo:42043:1,2010-10-01T23:30:00Z,28.9818,-94.9186,1013.57,11111222 
TABS,ioos:station:wmo:42043:1,2010-10-02T00:00:00Z,28.9818,-94.9186,1013.77,11111222 
TABS,ioos:station:wmo:42043:1,2010-10-02T00:30:00Z,28.9818,-94.9186,1013.83,11111222 
TABS,ioos:station:wmo:42043:1,2010-10-02T01:00:00Z,28.9818,-94.9186,1014.04,11111222 
TABS,ioos:station:wmo:42043:1,2010-10-02T01:30:00Z,28.9818,-94.9186,1014.26,11111222 
TABS,ioos:station:wmo:42043:1,2010-10-02T02:00:00Z,28.9818,-94.9186,1014.49,11111222 
TABS,ioos:station:wmo:42043:1,2010-10-02T02:30:00Z,28.9818,-94.9186,1014.6,11111222 
TABS,ioos:station:wmo:42043:1,2010-10-02T03:00:00Z,28.9818,-94.9186,1014.63,11111222 
TABS,ioos:station:wmo:42043:1,2010-10-02T03:30:00Z,28.9818,-94.9186,1014.59,11111222 
TABS,ioos:station:wmo:42043:1,2010-10-02T04:00:00Z,28.9818,-94.9186,1014.62,11111222 
TABS,ioos:station:wmo:42043:1,2010-10-02T04:30:00Z,28.9818,-94.9186,1014.49,11111222 
TABS,ioos:station:wmo:42043:1,2010-10-02T05:00:00Z,28.9818,-94.9186,1014.41,11111222 
TABS,ioos:station:wmo:42043:1,2010-10-02T05:30:00Z,28.9818,-94.9186,1014.22,11111222 
TABS,ioos:station:wmo:42043:1,2010-10-02T06:00:00Z,28.9818,-94.9186,1014.22,11111222 
TABS,ioos:station:wmo:42043:1,2010-10-02T06:30:00Z,28.9818,-94.9186,1014.3,11111222 
TABS,ioos:station:wmo:42043:1,2010-10-02T07:00:00Z,28.9818,-94.9186,1014.43,11111222 
TABS,ioos:station:wmo:42043:1,2010-10-02T07:30:00Z,28.9818,-94.9186,1014.41,11111222 
TABS,ioos:station:wmo:42043:1,2010-10-02T08:00:00Z,28.9818,-94.9186,1014.29,11111222 
TABS,ioos:station:wmo:42043:1,2010-10-02T08:30:00Z,28.9818,-94.9186,1014.17,11111222 
TABS,ioos:station:wmo:42043:1,2010-10-02T09:00:00Z,28.9818,-94.9186,1014.34,11111222 
TABS,ioos:station:wmo:42043:1,2010-10-02T09:30:00Z,28.9818,-94.9186,1014.37,11111222 
TABS,ioos:station:wmo:42043:1,2010-10-02T10:00:00Z,28.9818,-94.9186,1014.58,11111222 
TABS,ioos:station:wmo:42043:1,2010-10-02T10:30:00Z,28.9818,-94.9186,1014.82,11111222 
TABS,ioos:station:wmo:42043:1,2010-10-02T11:00:00Z,28.9818,-94.9186,1015.17,11111222 
TABS,ioos:station:wmo:42043:1,2010-10-02T11:30:00Z,28.9818,-94.9186,1015.47,11111222 
TABS,ioos:station:wmo:42043:1,2010-10-02T12:00:00Z,28.9818,-94.9186,1015.75,11111222 
TABS,ioos:station:wmo:42043:1,2010-10-02T12:30:00Z,28.9818,-94.9186,1015.99,11111222 
TABS,ioos:station:wmo:42043:1,2010-10-02T13:00:00Z,28.9818,-94.9186,1016.21,11111222 
TABS,ioos:station:wmo:42043:1,2010-10-02T13:30:00Z,28.9818,-94.9186,1016.52,11111222 
TABS,ioos:station:wmo:42043:1,2010-10-02T14:00:00Z,28.9818,-94.9186,1017.02,11111222 
TABS,ioos:station:wmo:42043:1,2010-10-02T14:30:00Z,28.9818,-94.9186,1017.19,11111222 
TABS,ioos:station:wmo:42043:1,2010-10-02T15:00:00Z,28.9818,-94.9186,1017.59,11111222 
TABS,ioos:station:wmo:42043:1,2010-10-02T15:30:00Z,28.9818,-94.9186,1017.7,11111222 
TABS,ioos:station:wmo:42043:1,2010-10-02T16:00:00Z,28.9818,-94.9186,1017.87,11111222 
TABS,ioos:station:wmo:42043:1,2010-10-02T16:30:00Z,28.9818,-94.9186,1017.83,11111222 
TABS,ioos:station:wmo:42043:1,2010-10-02T17:00:00Z,28.9818,-94.9186,1017.68,11111222 
TABS,ioos:station:wmo:42043:1,2010-10-02T17:30:00Z,28.9818,-94.9186,1017.34,11111222 
TABS,ioos:station:wmo:42043:1,2010-10-02T18:00:00Z,28.9818,-94.9186,1017.19,11111222 
TABS,ioos:station:wmo:42043:1,2010-10-02T18:30:00Z,28.9818,-94.9186,1016.8,11111222 
TABS,ioos:station:wmo:42043:1,2010-10-02T19:00:00Z,28.9818,-94.9186,1016.3,11111222 
TABS,ioos:station:wmo:42043:1,2010-10-02T19:30:00Z,28.9818,-94.9186,1016.09,11111222 
TABS,ioos:station:wmo:42043:1,2010-10-02T20:00:00Z,28.9818,-94.9186,1015.7,11111222 
TABS,ioos:station:wmo:42043:1,2010-10-02T20:30:00Z,28.9818,-94.9186,1015.51,11111222 
TABS,ioos:station:wmo:42043:1,2010-10-02T21:00:00Z,28.9818,-94.9186,1015.22,11111222 
TABS,ioos:station:wmo:42043:1,2010-10-02T21:30:00Z,28.9818,-94.9186,1015.01,11111222 
TABS,ioos:station:wmo:42043:1,2010-10-02T22:00:00Z,28.9818,-94.9186,1014.91,11111222 
TABS,ioos:station:wmo:42043:1,2010-10-02T22:30:00Z,28.9818,-94.9186,1014.94,11111222 
TABS,ioos:station:wmo:42043:1,2010-10-02T23:00:00Z,28.9818,-94.9186,1015.07,11111222 
TABS,ioos:station:wmo:42043:1,2010-10-02T23:30:00Z,28.9818,-94.9186,1015.28,11111222 
TABS,ioos:station:wmo:42043:1,2010-10-03T00:00:00Z,28.9818,-94.9186,1015.28,11111222 
TABS,ioos:station:wmo:42043:1,2010-10-03T00:30:00Z,28.9818,-94.9186,1015.57,11111222 
TABS,ioos:station:wmo:42043:1,2010-10-03T01:00:00Z,28.9818,-94.9186,1015.65,11111222 
TABS,ioos:station:wmo:42043:1,2010-10-03T01:30:00Z,28.9818,-94.9186,1016.05,11111222 
TABS,ioos:station:wmo:42043:1,2010-10-03T02:00:00Z,28.9818,-94.9186,1016.3,11111222 
TABS,ioos:station:wmo:42043:1,2010-10-03T02:30:00Z,28.9818,-94.9186,1016.48,11111222 
TABS,ioos:station:wmo:42043:1,2010-10-03T03:00:00Z,28.9818,-94.9186,1016.6,11111222 
TABS,ioos:station:wmo:42043:1,2010-10-03T03:30:00Z,28.9818,-94.9186,1016.83,11111222 
TABS,ioos:station:wmo:42043:1,2010-10-03T04:00:00Z,28.9818,-94.9186,1016.9,11111222 
TABS,ioos:station:wmo:42043:1,2010-10-03T04:30:00Z,28.9818,-94.9186,1016.88,11111222 
TABS,ioos:station:wmo:42043:1,2010-10-03T05:00:00Z,28.9818,-94.9186,1016.87,11111222 
TABS,ioos:station:wmo:42043:1,2010-10-03T05:30:00Z,28.9818,-94.9186,1016.82,11111222 
TABS,ioos:station:wmo:42043:1,2010-10-03T06:00:00Z,28.9818,-94.9186,1016.89,11111222 
TABS,ioos:station:wmo:42043:1,2010-10-03T06:30:00Z,28.9818,-94.9186,1016.98,11111222 
TABS,ioos:station:wmo:42043:1,2010-10-03T07:00:00Z,28.9818,-94.9186,1017.07,11111222 
TABS,ioos:station:wmo:42043:1,2010-10-03T07:30:00Z,28.9818,-94.9186,1017.0,11111222 
TABS,ioos:station:wmo:42043:1,2010-10-03T08:00:00Z,28.9818,-94.9186,1017.15,11111222 
TABS,ioos:station:wmo:42043:1,2010-10-03T08:30:00Z,28.9818,-94.9186,1017.05,11111222 
TABS,ioos:station:wmo:42043:1,2010-10-03T09:00:00Z,28.9818,-94.9186,1017.06,11111222 
TABS,ioos:station:wmo:42043:1,2010-10-03T09:30:00Z,28.9818,-94.9186,1017.06,11111222 
TABS,ioos:station:wmo:42043:1,2010-10-03T10:00:00Z,28.9818,-94.9186,1017.66,11111222 
TABS,ioos:station:wmo:42043:1,2010-10-03T10:30:00Z,28.9818,-94.9186,1018.21,11111222 
TABS,ioos:station:wmo:42043:1,2010-10-03T11:00:00Z,28.9818,-94.9186,1018.6,11111222 
TABS,ioos:station:wmo:42043:1,2010-10-03T11:30:00Z,28.9818,-94.9186,1019.08,11111222 
TABS,ioos:station:wmo:42043:1,2010-10-03T12:00:00Z,28.9818,-94.9186,1019.44,11111222 
TABS,ioos:station:wmo:42043:1,2010-10-03T12:30:00Z,28.9818,-94.9186,1019.61,11111222 
TABS,ioos:station:wmo:42043:1,2010-10-03T13:00:00Z,28.9818,-94.9186,1020.01,11111222 
TABS,ioos:station:wmo:42043:1,2010-10-03T13:30:00Z,28.9818,-94.9186,1020.14,11111222 
TABS,ioos:station:wmo:42043:1,2010-10-03T14:00:00Z,28.9818,-94.9186,1020.87,11111222 
TABS,ioos:station:wmo:42043:1,2010-10-03T14:30:00Z,28.9818,-94.9186,1020.96,11111222 
TABS,ioos:station:wmo:42043:1,2010-10-03T15:00:00Z,28.9818,-94.9186,1021.45,11111222 
TABS,ioos:station:wmo:42043:1,2010-10-03T15:30:00Z,28.9818,-94.9186,1021.73,11111222 
TABS,ioos:station:wmo:42043:1,2010-10-03T16:00:00Z,28.9818,-94.9186,1021.91,11111222 
TABS,ioos:station:wmo:42043:1,2010-10-03T16:30:00Z,28.9818,-94.9186,1021.67,11111222 
TABS,ioos:station:wmo:42043:1,2010-10-03T17:00:00Z,28.9818,-94.9186,1021.46,11111222 
TABS,ioos:station:wmo:42043:1,2010-10-03T17:30:00Z,28.9818,-94.9186,1021.29,11111222 
TABS,ioos:station:wmo:42043:1,2010-10-03T18:00:00Z,28.9818,-94.9186,1021.24,11111222 
TABS,ioos:station:wmo:42043:1,2010-10-03T18:30:00Z,28.9818,-94.9186,1020.62,11111222 
TABS,ioos:station:wmo:42043:1,2010-10-03T19:00:00Z,28.9818,-94.9186,1020.19,11111222 
TABS,ioos:station:wmo:42043:1,2010-10-03T19:30:00Z,28.9818,-94.9186,1019.93,11111222 
TABS,ioos:station:wmo:42043:1,2010-10-03T20:00:00Z,28.9818,-94.9186,1019.72,11111222 
TABS,ioos:station:wmo:42043:1,2010-10-03T20:30:00Z,28.9818,-94.9186,1019.63,11111222 
TABS,ioos:station:wmo:42043:1,2010-10-03T21:00:00Z,28.9818,-94.9186,1019.48,11111222 
TABS,ioos:station:wmo:42043:1,2010-10-03T21:30:00Z,28.9818,-94.9186,1019.36,11111222 
TABS,ioos:station:wmo:42043:1,2010-10-03T22:00:00Z,28.9818,-94.9186,1019.13,11111222 
TABS,ioos:station:wmo:42043:1,2010-10-03T22:30:00Z,28.9818,-94.9186,1018.98,11111222 
TABS,ioos:station:wmo:42043:1,2010-10-03T23:00:00Z,28.9818,-94.9186,1019.25,11111222 
TABS,ioos:station:wmo:42043:1,2010-10-03T23:30:00Z,28.9818,-94.9186,1019.39,11111222 
TABS,ioos:station:wmo:42043:1,2010-10-04T00:00:00Z,28.9818,-94.9186,1019.69,11111222 
TABS,ioos:station:wmo:42043:1,2010-10-04T00:30:00Z,28.9818,-94.9186,1020.04,11111222 
TABS,ioos:station:wmo:42043:1,2010-10-04T01:00:00Z,28.9818,-94.9186,1020.2,11111222 
TABS,ioos:station:wmo:42043:1,2010-10-04T01:30:00Z,28.9818,-94.9186,1020.83,11111222 
TABS,ioos:station:wmo:42043:1,2010-10-04T02:00:00Z,28.9818,-94.9186,1021.1,11111222 
TABS,ioos:station:wmo:42043:1,2010-10-04T02:30:00Z,28.9818,-94.9186,1021.51,11111222 
TABS,ioos:station:wmo:42043:1,2010-10-04T03:00:00Z,28.9818,-94.9186,1021.95,11111222 
TABS,ioos:station:wmo:42043:1,2010-10-04T03:30:00Z,28.9818,-94.9186,1022.23,11111222 
TABS,ioos:station:wmo:42043:1,2010-10-04T04:00:00Z,28.9818,-94.9186,1022.3,11111222 
TABS,ioos:station:wmo:42043:1,2010-10-04T04:30:00Z,28.9818,-94.9186,1022.37,11111222 
TABS,ioos:station:wmo:42043:1,2010-10-04T05:00:00Z,28.9818,-94.9186,1022.21,11111222 
TABS,ioos:station:wmo:42043:1,2010-10-04T05:30:00Z,28.9818,-94.9186,1021.94,11111222 
TABS,ioos:station:wmo:42043:1,2010-10-04T06:00:00Z,28.9818,-94.9186,1021.72,11111222 
TABS,ioos:station:wmo:42043:1,2010-10-04T06:30:00Z,28.9818,-94.9186,1021.59,11111222 
TABS,ioos:station:wmo:42043:1,2010-10-04T07:00:00Z,28.9818,-94.9186,1022.01,11111222 
TABS,ioos:station:wmo:42043:1,2010-10-04T07:30:00Z,28.9818,-94.9186,1021.86,11111222 
TABS,ioos:station:wmo:42043:1,2010-10-04T08:00:00Z,28.9818,-94.9186,1021.72,11111222 
TABS,ioos:station:wmo:42043:1,2010-10-04T08:30:00Z,28.9818,-94.9186,1021.79,11111222 
TABS,ioos:station:wmo:42043:1,2010-10-04T09:00:00Z,28.9818,-94.9186,1021.81,11111222 
TABS,ioos:station:wmo:42043:1,2010-10-04T09:30:00Z,28.9818,-94.9186,1021.97,11111222 
TABS,ioos:station:wmo:42043:1,2010-10-04T10:00:00Z,28.9818,-94.9186,1022.25,11111222 
TABS,ioos:station:wmo:42043:1,2010-10-04T10:30:00Z,28.9818,-94.9186,1022.33,11111222 
TABS,ioos:station:wmo:42043:1,2010-10-04T11:00:00Z,28.9818,-94.9186,1022.53,11111222 
TABS,ioos:station:wmo:42043:1,2010-10-04T11:30:00Z,28.9818,-94.9186,1022.74,11111222 
TABS,ioos:station:wmo:42043:1,2010-10-04T12:00:00Z,28.9818,-94.9186,1023.07,11111222 
TABS,ioos:station:wmo:42043:1,2010-10-04T12:30:00Z,28.9818,-94.9186,1023.53,11111222 
TABS,ioos:station:wmo:42043:1,2010-10-04T13:00:00Z,28.9818,-94.9186,1023.75,11111222 
TABS,ioos:station:wmo:42043:1,2010-10-04T13:30:00Z,28.9818,-94.9186,1024.21,11111222 
TABS,ioos:station:wmo:42043:1,2010-10-04T14:00:00Z,28.9818,-94.9186,1024.57,11111222 
TABS,ioos:station:wmo:42043:1,2010-10-04T14:30:00Z,28.9818,-94.9186,1024.76,11111222 
TABS,ioos:station:wmo:42043:1,2010-10-04T15:00:00Z,28.9818,-94.9186,1025.04,11111222 
TABS,ioos:station:wmo:42043:1,2010-10-04T15:30:00Z,28.9818,-94.9186,1025.15,11111222 
TABS,ioos:station:wmo:42043:1,2010-10-04T16:00:00Z,28.9818,-94.9186,1025.25,11111222 
TABS,ioos:station:wmo:42043:1,2010-10-04T16:30:00Z,28.9818,-94.9186,1025.26,11111222 
TABS,ioos:station:wmo:42043:1,2010-10-04T17:00:00Z,28.9818,-94.9186,1025.07,11111222 
TABS,ioos:station:wmo:42043:1,2010-10-04T17:30:00Z,28.9818,-94.9186,1024.9,11111222 
TABS,ioos:station:wmo:42043:1,2010-10-04T18:00:00Z,28.9818,-94.9186,1024.51,11111222 
TABS,ioos:station:wmo:42043:1,2010-10-04T18:30:00Z,28.9818,-94.9186,1024.02,11111222 
TABS,ioos:station:wmo:42043:1,2010-10-04T19:00:00Z,28.9818,-94.9186,1023.7,11111222 
TABS,ioos:station:wmo:42043:1,2010-10-04T19:30:00Z,28.9818,-94.9186,1023.38,11111222 
TABS,ioos:station:wmo:42043:1,2010-10-04T20:00:00Z,28.9818,-94.9186,1023.15,11111222 
TABS,ioos:station:wmo:42043:1,2010-10-04T20:30:00Z,28.9818,-94.9186,1022.94,11111222 
TABS,ioos:station:wmo:42043:1,2010-10-04T21:00:00Z,28.9818,-94.9186,1022.77,11111222 
TABS,ioos:station:wmo:42043:1,2010-10-04T21:30:00Z,28.9818,-94.9186,1022.76,11111222 
TABS,ioos:station:wmo:42043:1,2010-10-04T22:00:00Z,28.9818,-94.9186,1022.66,11111222 
TABS,ioos:station:wmo:42043:1,2010-10-04T22:30:00Z,28.9818,-94.9186,1022.75,11111222 
TABS,ioos:station:wmo:42043:1,2010-10-04T23:00:00Z,28.9818,-94.9186,1022.71,11111222 
TABS,ioos:station:wmo:42043:1,2010-10-04T23:30:00Z,28.9818,-94.9186,1022.78,11111222 
TABS,ioos:station:wmo:42043:1,2010-10-05T00:00:00Z,28.9818,-94.9186,1022.81,11111222 
TABS,ioos:station:wmo:42043:1,2010-10-05T00:30:00Z,28.9818,-94.9186,1022.91,11111222 
TABS,ioos:station:wmo:42043:1,2010-10-05T01:00:00Z,28.9818,-94.9186,1022.92,11111222 
TABS,ioos:station:wmo:42043:1,2010-10-05T01:30:00Z,28.9818,-94.9186,1023.14,11111222 
TABS,ioos:station:wmo:42043:1,2010-10-05T02:00:00Z,28.9818,-94.9186,1023.33,11111222 
TABS,ioos:station:wmo:42043:1,2010-10-05T02:30:00Z,28.9818,-94.9186,1023.54,11111222 
TABS,ioos:station:wmo:42043:1,2010-10-05T03:00:00Z,28.9818,-94.9186,1023.55,11111222 
TABS,ioos:station:wmo:42043:1,2010-10-05T03:30:00Z,28.9818,-94.9186,1023.67,11111222 
TABS,ioos:station:wmo:42043:1,2010-10-05T04:00:00Z,28.9818,-94.9186,1023.71,11111222 
TABS,ioos:station:wmo:42043:1,2010-10-05T04:30:00Z,28.9818,-94.9186,1023.71,11111222 
TABS,ioos:station:wmo:42043:1,2010-10-05T05:00:00Z,28.9818,-94.9186,1023.63,11111222 
TABS,ioos:station:wmo:42043:1,2010-10-05T05:30:00Z,28.9818,-94.9186,1023.58,11111222 
TABS,ioos:station:wmo:42043:1,2010-10-05T06:00:00Z,28.9818,-94.9186,1023.54,11111222 
TABS,ioos:station:wmo:42043:1,2010-10-05T06:30:00Z,28.9818,-94.9186,1023.46,11111222 
TABS,ioos:station:wmo:42043:1,2010-10-05T07:00:00Z,28.9818,-94.9186,1023.21,11111222 
TABS,ioos:station:wmo:42043:1,2010-10-05T07:30:00Z,28.9818,-94.9186,1023.21,11111222 
TABS,ioos:station:wmo:42043:1,2010-10-05T08:00:00Z,28.9818,-94.9186,1023.12,11111222 
TABS,ioos:station:wmo:42043:1,2010-10-05T08:30:00Z,28.9818,-94.9186,1022.9,11111222 
TABS,ioos:station:wmo:42043:1,2010-10-05T09:00:00Z,28.9818,-94.9186,1023.11,11111222 
TABS,ioos:station:wmo:42043:1,2010-10-05T09:30:00Z,28.9818,-94.9186,1023.2,11111222 
TABS,ioos:station:wmo:42043:1,2010-10-05T10:00:00Z,28.9818,-94.9186,1023.37,11111222 
TABS,ioos:station:wmo:42043:1,2010-10-05T10:30:00Z,28.9818,-94.9186,1023.42,11111222 
TABS,ioos:station:wmo:42043:1,2010-10-05T11:00:00Z,28.9818,-94.9186,1023.74,11111222 
TABS,ioos:station:wmo:42043:1,2010-10-05T11:30:00Z,28.9818,-94.9186,1024.08,11111222 
TABS,ioos:station:wmo:42043:1,2010-10-05T12:00:00Z,28.9818,-94.9186,1024.38,11111222 
TABS,ioos:station:wmo:42043:1,2010-10-05T12:30:00Z,28.9818,-94.9186,1024.47,11111222 
TABS,ioos:station:wmo:42043:1,2010-10-05T13:00:00Z,28.9818,-94.9186,1024.82,11111222 
TABS,ioos:station:wmo:42043:1,2010-10-05T13:30:00Z,28.9818,-94.9186,1025.43,11111222 
TABS,ioos:station:wmo:42043:1,2010-10-05T14:00:00Z,28.9818,-94.9186,1025.69,11111222 
TABS,ioos:station:wmo:42043:1,2010-10-05T14:30:00Z,28.9818,-94.9186,1025.91,11111222 
TABS,ioos:station:wmo:42043:1,2010-10-05T15:00:00Z,28.9818,-94.9186,1026.18,11111222 
TABS,ioos:station:wmo:42043:1,2010-10-05T15:30:00Z,28.9818,-94.9186,1026.17,11111222 
TABS,ioos:station:wmo:42043:1,2010-10-05T16:00:00Z,28.9818,-94.9186,1026.28,11111222 
TABS,ioos:station:wmo:42043:1,2010-10-05T16:30:00Z,28.9818,-94.9186,1026.38,11111222 
TABS,ioos:station:wmo:42043:1,2010-10-05T17:00:00Z,28.9818,-94.9186,1026.14,11111222 
TABS,ioos:station:wmo:42043:1,2010-10-05T17:30:00Z,28.9818,-94.9186,1025.87,11111222 
TABS,ioos:station:wmo:42043:1,2010-10-05T18:00:00Z,28.9818,-94.9186,1025.63,11111222 
TABS,ioos:station:wmo:42043:1,2010-10-05T18:30:00Z,28.9818,-94.9186,1025.51,11111222 
TABS,ioos:station:wmo:42043:1,2010-10-05T19:00:00Z,28.9818,-94.9186,1025.15,11111222 
TABS,ioos:station:wmo:42043:1,2010-10-05T19:30:00Z,28.9818,-94.9186,1024.84,11111222 
TABS,ioos:station:wmo:42043:1,2010-10-05T20:00:00Z,28.9818,-94.9186,1024.46,11111222 
TABS,ioos:station:wmo:42043:1,2010-10-05T20:30:00Z,28.9818,-94.9186,1024.48,11111222 
TABS,ioos:station:wmo:42043:1,2010-10-05T21:00:00Z,28.9818,-94.9186,1024.49,11111222 
TABS,ioos:station:wmo:42043:1,2010-10-05T21:30:00Z,28.9818,-94.9186,1024.25,11111222 
TABS,ioos:station:wmo:42043:1,2010-10-05T22:00:00Z,28.9818,-94.9186,1024.21,11111222 
TABS,ioos:station:wmo:42043:1,2010-10-05T22:30:00Z,28.9818,-94.9186,1024.1,11111222 
TABS,ioos:station:wmo:42043:1,2010-10-05T23:00:00Z,28.9818,-94.9186,1024.01,11111222 
TABS,ioos:station:wmo:42043:1,2010-10-05T23:30:00Z,28.9818,-94.9186,1024.05,11111222 
TABS,ioos:station:wmo:42043:1,2010-10-06T00:00:00Z,28.9818,-94.9186,1024.12,11111222 
TABS,ioos:station:wmo:42043:1,2010-10-06T00:30:00Z,28.9818,-94.9186,1024.21,11111222 
TABS,ioos:station:wmo:42043:1,2010-10-06T01:00:00Z,28.9818,-94.9186,1024.39,11111222 
TABS,ioos:station:wmo:42043:1,2010-10-06T01:30:00Z,28.9818,-94.9186,1024.38,11111222 
TABS,ioos:station:wmo:42043:1,2010-10-06T02:00:00Z,28.9818,-94.9186,1024.55,11111222 
TABS,ioos:station:wmo:42043:1,2010-10-06T02:30:00Z,28.9818,-94.9186,1024.82,11111222 
TABS,ioos:station:wmo:42043:1,2010-10-06T03:00:00Z,28.9818,-94.9186,1024.87,11111222 
TABS,ioos:station:wmo:42043:1,2010-10-06T03:30:00Z,28.9818,-94.9186,1024.88,11111222 
TABS,ioos:station:wmo:42043:1,2010-10-06T04:00:00Z,28.9818,-94.9186,1024.91,11111222 
TABS,ioos:station:wmo:42043:1,2010-10-06T04:30:00Z,28.9818,-94.9186,1024.83,11111222 
TABS,ioos:station:wmo:42043:1,2010-10-06T05:00:00Z,28.9818,-94.9186,1024.7,11111222 
TABS,ioos:station:wmo:42043:1,2010-10-06T05:30:00Z,28.9818,-94.9186,1024.53,11111222 
TABS,ioos:station:wmo:42043:1,2010-10-06T06:00:00Z,28.9818,-94.9186,1024.29,11111222 
TABS,ioos:station:wmo:42043:1,2010-10-06T06:30:00Z,28.9818,-94.9186,1024.24,11111222 
TABS,ioos:station:wmo:42043:1,2010-10-06T07:00:00Z,28.9818,-94.9186,1024.23,11111222 
TABS,ioos:station:wmo:42043:1,2010-10-06T07:30:00Z,28.9818,-94.9186,1024.26,11111222 
TABS,ioos:station:wmo:42043:1,2010-10-06T08:00:00Z,28.9818,-94.9186,1024.14,11111222 
TABS,ioos:station:wmo:42043:1,2010-10-06T08:30:00Z,28.9818,-94.9186,1023.97,11111222 
TABS,ioos:station:wmo:42043:1,2010-10-06T09:00:00Z,28.9818,-94.9186,1023.91,11111222 
TABS,ioos:station:wmo:42043:1,2010-10-06T09:30:00Z,28.9818,-94.9186,1023.89,11111222 
TABS,ioos:station:wmo:42043:1,2010-10-06T10:00:00Z,28.9818,-94.9186,1023.91,11111222 
TABS,ioos:station:wmo:42043:1,2010-10-06T10:30:00Z,28.9818,-94.9186,1024.11,11111222 
TABS,ioos:station:wmo:42043:1,2010-10-06T11:00:00Z,28.9818,-94.9186,1024.33,11111222 
TABS,ioos:station:wmo:42043:1,2010-10-06T11:30:00Z,28.9818,-94.9186,1024.6,11111222 
TABS,ioos:station:wmo:42043:1,2010-10-06T12:00:00Z,28.9818,-94.9186,1024.77,11111222 
TABS,ioos:station:wmo:42043:1,2010-10-06T12:30:00Z,28.9818,-94.9186,1024.86,11111222 
TABS,ioos:station:wmo:42043:1,2010-10-06T13:00:00Z,28.9818,-94.9186,1025.03,11111222 
TABS,ioos:station:wmo:42043:1,2010-10-06T13:30:00Z,28.9818,-94.9186,1025.31,11111222 
TABS,ioos:station:wmo:42043:1,2010-10-06T14:00:00Z,28.9818,-94.9186,1025.56,11111222 
TABS,ioos:station:wmo:42043:1,2010-10-06T14:30:00Z,28.9818,-94.9186,1025.78,11111222 
TABS,ioos:station:wmo:42043:1,2010-10-06T15:00:00Z,28.9818,-94.9186,1026.04,11111222 
TABS,ioos:station:wmo:42043:1,2010-10-06T15:30:00Z,28.9818,-94.9186,1026.13,11111222 
TABS,ioos:station:wmo:42043:1,2010-10-06T16:00:00Z,28.9818,-94.9186,1026.12,11111222 
TABS,ioos:station:wmo:42043:1,2010-10-06T16:30:00Z,28.9818,-94.9186,1026.03,11111222 
TABS,ioos:station:wmo:42043:1,2010-10-06T17:00:00Z,28.9818,-94.9186,1025.89,11111222 
TABS,ioos:station:wmo:42043:1,2010-10-06T17:30:00Z,28.9818,-94.9186,1025.67,11111222 
TABS,ioos:station:wmo:42043:1,2010-10-06T18:00:00Z,28.9818,-94.9186,1025.31,11111222 
TABS,ioos:station:wmo:42043:1,2010-10-06T18:30:00Z,28.9818,-94.9186,1024.91,11111222 